Temperature
7 7 8 9 11 13 14 14 13 14 13 14 14 15 16 15 15 16 17 17 17 17 16 16 16 16 16 17 16 16 16 16 16 15 15 15 15 15 15 15 15 15 15 14
7 7 8 10 10 11 12 13 13 13 13 13 14 14 15 16 15 16 16 17 17 17 16 16 16 16 16 17 17 16 16 16 16 16 16 16 15 15 15 15 15 15 15 14
7 8 9 9 10 11 12 13 13 12 12 13 13 14 15 16 15 15 15 16 16 16 16 16 16 16 16 16 17 17 16 16 16 16 16 15 15 15 15 15 15 15 14 14
7 8 8 9 10 11 11 12 13 12 12 13 13 14 15 16 15 15 15 15 16 15 15 15 15 15 16 16 16 16 16 16 16 16 15 15 15 15 15 15 14 14 14 14
7 8 8 9 10 11 11 12 12 13 13 13 13 14 16 15 15 16 16 15 15 15 14 14 15 15 16 16 16 16 16 16 15 15 15 15 15 14 14 14 14 14 13 13
7 8 9 9 10 11 11 11 11 12 12 11 13 13 14 15 15 16 16 16 15 15 14 14 14 15 15 15 15 15 15 15 15 15 14 14 14 14 13 13 13 13 12 12
7 7 8 9 9 9 11 11 10 10 10 11 12 12 14 15 15 15 16 15 14 14 14 14 13 14 15 15 15 14 14 14 14 14 14 13 13 13 13 12 12 12 12 11
7 7 8 9 10 10 11 12 11 11 11 12 11 12 14 15 14 13 12 12 12 12 13 13 12 13 14 14 14 13 13 13 13 13 13 12 12 12 12 11 11 11 11 10
8 7 7 8 9 11 10 10 11 12 11 12 12 12 13 14 14 13 13 12 12 12 11 12 12 11 12 13 12 12 12 12 12 12 12 11 11 11 11 10 10 10 9 9
9 7 8 8 9 9 10 11 10 10 10 12 12 12 14 14 15 14 14 13 12 10 10 10 10 10 10 11 11 11 11 11 11 11 11 10 10 10 10 9 9 8 8 8
9 8 7 8 9 9 9 9 10 11 11 12 12 13 14 14 14 13 13 12 11 10 9 9 9 8 9 10 10 10 10 10 10 10 10 9 9 9 8 8 7 7 7 7
9 9 7 7 8 9 10 10 11 10 9 11 12 13 14 13 12 11 11 11 10 9 9 8 7 8 9 9 10 10 10 10 9 9 9 8 8 7 7 7 6 6 6 6
9 9 7 7 8 8 9 9 10 10 10 10 10 13 13 12 12 11 11 11 10 9 9 8 8 8 9 9 10 10 9 9 9 8 8 7 7 6 6 5 5 5 5 5
9 9 9 9 10 9 8 9 9 9 9 10 11 12 13 13 13 13 12 11 10 9 9 8 8 8 9 9 9 9 9 9 8 8 7 6 6 5 5 4 4 4 4 4
8 8 7 8 8 8 8 9 9 8 10 10 11 12 12 13 13 12 11 11 10 9 9 9 9 9 9 9 9 9 9 8 8 7 6 5 4 4 4 3 3 3 3 3
8 7 7 7 7 8 8 8 9 9 9 10 10 11 12 12 11 11 10 10 10 9 9 9 9 9 10 10 9 9 8 8 7 6 5 4 4 3 3 2 2 2 2 2
7 7 7 8 7 7 8 9 9 8 9 9 10 11 12 11 10 10 10 9 9 9 9 9 10 10 10 10 10 9 8 7 6 5 4 3 2 2 1 1 1 1 1 1
7 7 7 7 7 7 9 8 8 8 9 9 9 9 10 9 9 9 9 9 9 9 9 10 10 10 10 10 9 9 8 7 6 5 3 2 2 1 1 0 0 0 0 1
8 8 7 7 7 8 9 8 8 8 8 8 8 9 8 8 8 9 8 8 8 8 9 9 10 10 10 10 9 8 7 6 5 4 3 2 1 1 0 0 0 0 0 0
7 7 7 7 7 8 9 8 7 8 8 8 7 8 7 7 9 10 8 8 8 9 9 9 10 10 10 9 9 8 7 6 5 4 3 2 1 1 0 0 0 0 0 0
6 6 6 7 7 8 8 7 7 8 8 6 6 6 6 6 7 7 7 8 8 9 9 9 9 9 9 9 8 7 7 6 5 4 3 2 1 1 1 0 0 0 0 0
7 7 7 7 7 7 7 6 7 7 5 5 5 5 4 5 5 6 7 7 8 8 8 9 9 9 8 8 7 7 6 5 4 3 3 2 1 1 1 0 0 0 0 0
6 6 6 7 7 6 5 5 4 4 4 4 3 4 4 4 5 6 6 7 7 8 8 8 8 8 7 7 7 6 5 4 4 3 3 2 2 1 1 1 0 0 0 0
4 3 4 5 6 5 4 3 3 2 2 2 3 3 4 4 4 5 6 6 7 7 7 7 7 7 7 6 6 5 4 4 4 3 3 2 2 1 1 1 0 1 1 1
2 3 3 4 4 4 4 3 2 2 2 2 2 3 3 4 4 5 5 6 6 6 6 6 6 6 6 5 5 4 4 4 3 3 2 2 2 2 1 1 1 1 1 1
1 2 2 3 2 2 2 1 1 1 1 1 1 2 3 3 3 4 5 5 5 6 6 6 6 5 5 5 4 4 4 3 3 3 2 2 2 2 1 1 1 1 1 1
Wind_Speed
7 7 10 16 17 13 17 17 18 14 11 15 18 17 12 9 12 16 16 17 17 15 9 4 3 3 4 5 7 9 9 9 8 7 6 6 6 6 5 5 6 6 7 8
7 8 10 9 10 10 15 16 14 9 9 11 14 17 15 14 14 15 16 18 19 17 12 7 5 4 5 5 6 7 8 8 8 6 5 4 4 4 4 3 3 3 4 5
7 6 9 10 12 13 14 16 15 11 9 8 8 13 18 17 16 16 16 17 17 17 14 10 7 6 5 6 6 6 6 6 6 6 5 4 3 3 4 4 3 2 3 4
4 4 9 12 13 14 11 12 12 14 12 8 11 9 14 16 17 18 18 17 17 15 13 11 9 8 7 6 5 5 6 5 5 6 6 7 5 5 4 2 2 1 1 2
4 8 11 12 11 11 7 10 11 12 10 6 9 9 7 9 16 19 19 18 18 16 15 13 12 10 8 7 6 6 6 6 5 5 5 5 4 3 2 2 2 2 1 1
2 3 6 6 6 7 10 11 8 6 6 7 11 11 8 7 13 14 16 18 18 17 16 15 11 9 9 9 8 7 7 6 5 4 4 4 4 4 3 3 3 2 2 1
3 3 2 5 8 7 12 13 7 7 7 7 6 9 8 6 8 10 11 12 11 11 13 13 13 13 12 11 10 9 9 7 6 5 4 3 3 3 3 3 3 3 2 2
5 5 3 4 6 8 12 10 5 6 8 5 6 9 6 5 6 7 8 9 8 9 10 11 13 13 13 12 11 10 9 8 6 5 4 3 3 2 1 1 2 2 2 2
5 4 3 2 1 7 9 5 1 1 3 4 6 5 7 6 6 5 5 6 7 8 8 10 11 12 12 12 12 11 10 8 7 5 4 3 2 1 1 1 1 1 1 2
3 5 4 3 4 3 3 6 4 4 5 5 5 5 4 3 1 1 3 4 5 5 6 8 10 12 12 11 10 10 9 8 7 5 4 2 2 1 1 1 1 1 0 0
2 5 5 5 6 8 7 6 4 4 3 3 3 2 2 2 1 3 5 5 5 3 4 7 9 11 11 11 10 9 8 7 6 5 4 3 2 2 2 1 1 1 0 0
2 4 4 2 1 1 5 8 8 6 4 3 3 2 2 3 3 4 4 4 3 2 4 7 9 11 11 11 10 9 8 7 6 5 4 3 3 3 2 2 1 1 1 1
4 5 6 4 3 4 5 6 8 5 3 5 6 5 2 3 4 4 4 4 3 3 5 8 10 11 11 11 10 9 8 7 6 5 5 4 4 3 3 2 2 2 2 2
3 2 3 4 3 6 7 9 10 8 7 9 12 12 9 9 10 10 10 8 5 5 7 9 11 11 11 10 9 9 8 7 6 6 5 5 4 4 3 3 3 3 3 3
1 2 1 1 1 3 6 9 13 14 14 12 13 15 15 15 15 15 13 10 8 8 10 12 12 12 12 11 10 9 8 8 7 7 6 5 4 4 4 4 3 3 3 3
1 2 2 1 1 3 5 10 12 14 15 17 18 18 15 14 13 14 14 12 12 12 12 13 13 13 13 13 12 11 10 9 8 7 7 6 6 5 5 5 4 4 4 4
3 3 3 2 1 2 7 8 12 9 10 11 14 13 12 12 13 13 13 13 13 13 12 13 15 15 14 14 13 12 11 10 9 8 7 7 7 6 6 5 5 5 5 5
5 4 2 2 2 6 0 1 3 7 7 9 11 13 13 14 15 14 12 12 13 13 12 12 13 13 13 12 12 11 11 10 10 9 8 7 7 7 6 6 6 6 5 5
4 4 3 3 3 5 2 1 3 4 2 2 5 9 11 12 11 8 6 8 11 11 11 10 10 11 11 13 13 12 12 11 10 9 9 8 8 8 8 7 7 6 5 5
3 3 4 3 3 3 1 2 1 3 3 4 6 9 11 9 7 7 9 10 9 7 6 5 6 9 11 12 13 13 12 12 11 10 9 8 8 8 8 7 7 5 5 5
4 4 6 6 5 4 3 2 3 3 1 7 8 10 10 7 8 12 13 10 7 4 1 3 7 8 10 12 13 13 12 12 10 9 9 8 8 8 8 7 6 6 5 5
5 4 5 5 6 3 3 2 1 3 6 8 9 10 11 11 11 10 9 7 5 3 1 3 5 6 8 11 13 12 11 10 10 10 9 9 8 8 7 8 7 7 6 6
2 2 2 3 1 3 3 2 3 5 8 8 10 11 11 11 10 10 8 6 4 2 1 2 5 6 8 10 11 11 10 11 11 11 10 9 9 8 8 8 8 7 7 6
1 4 2 3 1 4 3 2 6 8 9 10 11 11 11 11 11 10 8 6 4 2 2 3 5 7 8 9 10 9 10 12 12 11 10 10 10 9 9 7 7 7 8 7
3 3 3 4 4 6 2 7 11 12 11 12 11 11 10 11 10 9 8 6 5 3 3 4 6 6 8 9 9 9 10 12 12 11 10 10 9 9 9 8 8 9 9 9
1 2 3 4 6 8 11 13 15 14 14 13 13 13 11 10 10 9 8 6 5 4 3 5 6 7 7 8 9 10 11 12 12 11 10 9 9 8 8 8 8 12 12 12
Wind_Direction
167 182 191 190 198 206 190 192 194 196 184 200 215 226 229 224 226 231 233 232 235 237 233 203 189 192 192 197 199 198 196 197 196 196 201 208 216 218 220 225 234 239 242 242
156 201 195 184 185 183 179 184 182 175 180 200 216 229 233 232 231 231 230 230 231 232 223 206 193 189 192 189 192 192 191 189 192 196 195 200 202 212 215 208 214 232 245 250
170 170 172 178 177 175 183 185 178 164 160 194 209 233 233 233 236 239 238 237 235 230 226 219 212 200 191 188 186 181 179 178 183 184 176 167 175 185 193 200 207 238 261 258
163 165 174 179 180 174 176 181 172 166 170 188 203 232 225 225 228 233 235 235 236 234 231 223 214 208 196 184 172 169 166 164 170 179 188 196 204 212 208 205 211 236 263 272
171 174 174 176 175 172 159 160 167 178 188 192 204 233 237 215 229 232 232 234 236 236 232 226 216 202 185 171 165 160 155 150 154 164 176 192 203 206 193 203 220 231 236 274
110 145 173 170 150 150 137 137 129 161 194 221 215 223 249 220 232 233 232 234 236 238 234 228 213 189 173 166 161 158 151 141 141 146 158 178 186 192 201 217 231 240 244 260
117 128 141 156 138 148 164 154 152 176 201 224 185 221 249 247 242 245 246 241 242 244 239 227 206 190 178 171 164 160 155 146 142 141 142 147 165 189 210 225 238 251 256 265
142 147 157 167 171 167 177 182 188 186 196 189 183 228 245 258 267 269 268 265 257 248 237 224 208 195 182 173 167 163 157 149 144 140 135 132 144 175 196 227 250 260 273 289
148 132 111 104 127 161 170 186 349 91 135 194 204 235 269 255 255 258 265 266 261 252 237 221 202 192 180 172 170 164 157 151 147 144 142 140 146 165 184 216 245 260 277 294
127 127 134 128 123 56 179 161 168 177 182 212 210 229 226 175 155 5 335 313 297 269 236 210 192 183 175 168 163 161 158 152 149 149 146 146 149 151 171 199 214 248 287 288
132 129 139 159 188 175 158 174 193 190 230 228 212 186 179 188 356 338 341 335 315 274 225 198 183 175 168 161 161 159 157 155 155 155 153 159 156 155 166 170 164 171 148 102
135 129 135 142 73 242 204 197 194 196 200 221 239 221 137 232 275 286 313 334 325 254 200 185 176 170 168 166 166 164 163 164 162 159 162 163 162 170 179 170 160 157 137 99
148 143 138 152 190 198 210 208 213 218 197 210 227 238 151 231 253 262 290 313 305 216 187 181 180 180 178 174 173 171 170 167 164 166 172 174 177 181 183 171 158 148 131 112
142 158 209 190 167 176 194 206 206 203 219 236 239 251 248 260 271 282 295 299 281 226 203 195 192 191 186 182 179 177 175 171 171 174 180 184 182 178 170 160 153 142 131 121
146 153 135 67 91 165 201 210 210 217 230 244 257 260 264 273 284 290 291 285 267 243 221 209 202 197 192 188 185 182 178 176 176 179 183 181 173 166 162 157 149 137 127 118
132 143 146 167 190 216 237 232 225 230 238 246 261 270 276 285 288 284 279 272 262 250 234 220 209 202 199 195 189 184 181 178 178 182 182 174 173 170 167 160 151 142 131 119
165 156 171 192 173 250 254 238 224 222 226 237 254 270 295 297 290 285 281 272 260 254 240 224 214 207 203 197 189 185 180 174 179 183 179 177 178 175 169 161 157 151 138 128
171 168 178 186 195 233 333 72 223 227 249 251 265 283 295 297 297 290 282 275 268 257 245 231 219 209 200 189 182 176 172 175 179 182 182 181 180 176 168 165 161 152 144 140
196 181 181 203 237 266 289 199 201 208 235 324 289 303 314 316 301 285 291 290 276 266 253 240 220 203 187 180 174 170 173 177 181 185 184 182 180 176 172 171 164 156 151 143
178 204 206 203 237 240 80 43 203 205 192 28 336 324 327 327 314 324 337 321 304 288 262 229 195 180 176 173 169 171 176 180 186 186 183 179 179 178 176 170 162 159 157 153
178 197 215 222 239 263 346 337 182 221 1 346 331 325 325 312 292 308 317 317 316 315 284 175 168 172 172 166 168 175 179 186 182 175 172 174 177 177 171 164 162 159 162 164
202 204 208 214 226 236 36 100 141 345 338 326 323 324 319 309 305 311 318 323 329 339 73 153 160 160 161 167 172 177 182 177 169 168 171 174 175 172 170 168 168 172 177 183
225 269 266 238 260 44 37 85 33 349 326 325 322 320 317 312 312 317 318 319 319 315 198 169 164 158 166 176 181 182 177 168 167 171 177 178 177 177 178 181 182 184 191 201
17 355 303 282 301 336 323 14 348 339 324 318 316 314 313 310 310 313 312 309 300 273 210 184 176 177 181 186 190 185 172 170 173 178 181 181 183 185 187 191 195 198 200 206
345 341 319 288 322 334 333 341 334 328 323 320 319 316 312 309 306 307 305 301 291 262 217 198 200 199 195 190 193 185 176 175 181 184 185 186 190 192 196 202 207 209 215 215
12 352 322 297 323 309 300 315 321 318 318 317 315 314 315 310 303 302 297 294 283 263 230 213 213 212 203 195 197 191 185 184 186 189 191 192 194 197 200 204 215 225 226 228
Height
1492 1495 1493 1492 1492 1490 1490 1495 1500 1503 1509 1511 1511 1512 1513 1516 1517 1517 1518 1520 1522 1525 1528 1529 1531 1533 1535 1537 1540 1542 1544 1547 1549 1550 1552 1553 1554 1556 1557 1557 1558 1558 1559 1559
1493 1493 1492 1493 1495 1494 1494 1497 1501 1507 1510 1510 1510 1511 1510 1512 1513 1513 1514 1515 1517 1520 1523 1525 1528 1530 1532 1534 1537 1539 1541 1543 1546 1548 1549 1550 1551 1552 1553 1554 1554 1554 1555 1555
1489 1491 1493 1495 1495 1495 1496 1496 1500 1505 1510 1511 1512 1511 1507 1506 1509 1510 1510 1511 1513 1516 1519 1522 1524 1526 1528 1531 1533 1535 1538 1540 1542 1544 1546 1547 1548 1548 1549 1549 1549 1550 1550 1550
1491 1492 1493 1494 1493 1493 1497 1496 1500 1504 1507 1509 1509 1505 1498 1499 1502 1504 1505 1507 1509 1512 1515 1517 1520 1522 1525 1527 1529 1531 1534 1536 1539 1540 1542 1543 1544 1544 1545 1545 1545 1545 1545 1545
1491 1491 1492 1493 1493 1493 1496 1499 1501 1503 1504 1507 1507 1505 1493 1496 1497 1497 1500 1502 1505 1508 1511 1513 1515 1518 1521 1523 1525 1528 1530 1532 1534 1536 1538 1539 1540 1540 1540 1540 1540 1540 1540 1539
1491 1492 1492 1493 1495 1496 1499 1502 1505 1505 1505 1511 1503 1504 1495 1491 1491 1492 1495 1497 1500 1503 1506 1508 1511 1513 1516 1519 1521 1524 1526 1528 1530 1532 1533 1534 1535 1536 1536 1536 1535 1535 1534 1534
1492 1493 1494 1494 1497 1500 1498 1500 1508 1512 1512 1505 1502 1503 1493 1487 1489 1490 1492 1494 1496 1499 1501 1503 1505 1506 1510 1513 1516 1519 1522 1524 1526 1528 1529 1530 1531 1531 1531 1531 1531 1530 1529 1529
1490 1493 1494 1494 1493 1495 1495 1495 1498 1500 1502 1500 1507 1500 1489 1487 1490 1491 1492 1493 1493 1494 1495 1497 1499 1501 1504 1508 1512 1515 1518 1520 1522 1524 1525 1526 1526 1527 1526 1526 1526 1525 1524 1524
1485 1492 1495 1495 1495 1494 1497 1498 1499 1496 1498 1498 1496 1495 1490 1486 1487 1488 1489 1490 1490 1490 1491 1492 1494 1496 1499 1503 1507 1511 1514 1516 1518 1520 1521 1522 1522 1522 1522 1521 1521 1520 1520 1519
1485 1491 1494 1496 1496 1498 1496 1497 1500 1501 1501 1494 1492 1491 1484 1483 1483 1485 1486 1487 1487 1487 1487 1488 1489 1492 1495 1499 1504 1508 1511 1513 1515 1516 1517 1518 1518 1517 1517 1517 1516 1516 1515 1515
1485 1489 1496 1496 1495 1495 1499 1500 1497 1496 1495 1493 1490 1487 1482 1483 1485 1486 1486 1486 1485 1485 1484 1485 1486 1489 1492 1497 1501 1505 1508 1510 1511 1512 1513 1513 1513 1513 1513 1512 1512 1512 1511 1511
1486 1486 1494 1496 1498 1496 1494 1493 1494 1496 1502 1496 1491 1488 1483 1485 1486 1487 1486 1485 1484 1483 1483 1483 1485 1487 1491 1495 1499 1502 1505 1507 1508 1509 1509 1509 1509 1509 1508 1508 1508 1508 1507 1507
1486 1487 1493 1496 1500 1499 1495 1494 1493 1493 1496 1497 1495 1488 1483 1485 1485 1485 1485 1484 1483 1482 1482 1483 1484 1486 1489 1493 1496 1499 1502 1503 1504 1505 1505 1505 1505 1504 1504 1504 1504 1504 1503 1503
1486 1486 1486 1484 1482 1487 1492 1492 1493 1495 1496 1492 1489 1484 1481 1481 1481 1482 1482 1482 1482 1481 1481 1482 1483 1485 1488 1491 1494 1496 1498 1500 1501 1501 1501 1501 1500 1500 1500 1500 1500 1500 1500 1499
1486 1487 1490 1488 1489 1489 1489 1489 1490 1493 1489 1489 1482 1481 1479 1479 1480 1480 1480 1480 1479 1479 1479 1479 1481 1483 1486 1488 1491 1493 1495 1496 1497 1497 1497 1497 1496 1496 1496 1496 1496 1496 1496 1496
1487 1488 1490 1491 1490 1490 1490 1487 1487 1488 1486 1485 1484 1481 1478 1479 1479 1478 1477 1476 1475 1475 1475 1475 1477 1479 1482 1484 1487 1489 1491 1492 1492 1492 1493 1493 1493 1492 1492 1493 1493 1493 1494 1494
1487 1489 1489 1486 1490 1489 1484 1480 1482 1483 1483 1483 1481 1478 1477 1477 1476 1475 1473 1472 1470 1470 1470 1471 1472 1474 1477 1480 1483 1485 1487 1488 1488 1488 1489 1489 1489 1489 1489 1490 1491 1491 1492 1492
1487 1487 1489 1488 1490 1490 1479 1481 1481 1481 1481 1482 1481 1479 1478 1476 1473 1470 1468 1467 1465 1464 1465 1465 1467 1469 1472 1475 1478 1481 1482 1483 1484 1484 1484 1485 1485 1486 1486 1487 1488 1489 1490 1490
1487 1487 1487 1487 1484 1478 1478 1480 1481 1480 1479 1481 1480 1478 1476 1474 1469 1465 1464 1462 1460 1459 1460 1461 1462 1465 1468 1471 1473 1475 1477 1478 1479 1480 1481 1481 1482 1483 1484 1485 1486 1488 1488 1489
1488 1487 1486 1486 1484 1479 1478 1480 1480 1481 1477 1481 1480 1478 1475 1472 1467 1462 1461 1458 1456 1455 1455 1456 1458 1460 1463 1466 1468 1471 1472 1474 1475 1477 1477 1478 1479 1480 1482 1483 1485 1486 1487 1488
1486 1486 1485 1483 1482 1476 1479 1480 1481 1479 1478 1481 1479 1477 1475 1472 1469 1465 1460 1457 1454 1453 1453 1454 1455 1457 1459 1462 1464 1466 1468 1470 1472 1473 1474 1475 1477 1478 1480 1481 1483 1484 1485 1486
1481 1481 1481 1481 1481 1480 1481 1481 1481 1482 1482 1480 1478 1476 1473 1469 1465 1462 1459 1456 1454 1452 1452 1452 1453 1455 1457 1459 1461 1463 1465 1467 1469 1470 1471 1473 1474 1476 1477 1479 1481 1482 1483 1484
1484 1484 1481 1480 1481 1483 1483 1483 1484 1483 1481 1479 1476 1473 1470 1467 1463 1460 1458 1455 1454 1453 1452 1452 1453 1453 1455 1456 1458 1460 1463 1464 1466 1467 1469 1470 1472 1473 1475 1477 1478 1480 1481 1482
1488 1489 1486 1483 1482 1484 1483 1483 1483 1481 1479 1477 1474 1471 1468 1465 1462 1459 1457 1455 1454 1453 1452 1451 1452 1452 1453 1455 1456 1458 1460 1461 1463 1465 1466 1468 1469 1471 1472 1474 1475 1477 1478 1479
1492 1490 1488 1485 1484 1483 1482 1482 1481 1478 1476 1473 1471 1468 1466 1463 1460 1458 1455 1454 1453 1452 1451 1451 1451 1451 1452 1453 1454 1455 1456 1458 1460 1462 1463 1465 1466 1468 1469 1471 1472 1474 1475 1476
1494 1494 1492 1487 1488 1487 1483 1481 1478 1475 1472 1470 1467 1464 1462 1460 1457 1455 1453 1452 1451 1450 1449 1449 1449 1449 1450 1450 1451 1452 1454 1455 1457 1458 1459 1461 1463 1464 1466 1467 1469 1470 1471 1472